Regional Weather Roundup
Issued by NWS

Home | Current Version | Previous Version | Text Only | Print | Product List | Glossary On
Versions: 1 2 3 4 5 6 7 8 9 10 11 12 13 14 15 16 17 18 19 20 21 22 23 24 25 26 27 28 29 30 31 32 33 34 35 36 37 38 39 40 41 42 43 44 45 46 47 48 49 50
000
ASUS43 KFSD 221210
RWRSD

WEATHER ROUNDUP FOR SOUTH DAKOTA
NATIONAL WEATHER SERVICE SIOUX FALLS SD
700 AM CDT MON JUL 22 2019

NOTE: "FAIR" INDICATES FEW OR NO CLOUDS BELOW 12,000 FEET WITH NO
SIGNIFICANT WEATHER AND/OR OBSTRUCTIONS TO VISIBILITY.


SDZ001>005-009-010-012>017-221300-
NORTHWEST AND NORTH CENTRAL SOUTH DAKOTA

CITY           SKY/WX    TMP DP  RH WIND       PRES   REMARKS
BUFFALO          N/A     57  53  86 CALM      30.30S
FAITH            N/A     57  55  93 S9        30.33R
MOBRIDGE       CLEAR     59  56  89 CALM      30.30R
$$

SDZ012>016-024>037-041>051-057-063-072>074-221300-
SOUTHWEST AND SOUTH CENTRAL SOUTH DAKOTA

CITY           SKY/WX    TMP DP  RH WIND       PRES   REMARKS
RAPID CTY ARPT CLEAR     54  50  86 CALM      30.34S
PIERRE         CLEAR     53  52  96 CALM      30.31R
CUSTER         PTCLDY    46  43  89 NW3       30.42S
ELLSWORTH AFB  CLEAR     56  54  93 S6        30.34R
PHILIP         PTCLDY    53  53 100 CALM      30.33S FOG
PINE RIDGE     PTCLDY    48  46  93 CALM      30.36R
SPEARFISH      FAIR      54  54 100 S6        30.35R
WINNER         LGT RAIN  56  53  90 W3        30.33R
$$

SDZ004>011-016>023-039-040-221300-
NORTHEAST SOUTH DAKOTA

CITY           SKY/WX    TMP DP  RH WIND       PRES   REMARKS
ABERDEEN       CLEAR     58  54  86 N3        30.31R
WATERTOWN      CLEAR     54  54 100 CALM      30.30R
BROOKINGS      CLEAR     56  56 100 N3        30.29R
SISSETON         N/A     57  55  93 NW6       30.29R
$$

SDZ017-020-022-023-036>040-048>070-221300-
SOUTHEAST SOUTH DAKOTA

CITY           SKY/WX    TMP DP  RH WIND       PRES   REMARKS
SIOUX FALLS    CLEAR     61  56  83 N7        30.28R
HURON          CLEAR     58  56  93 NW5       30.31R
CHAMBERLAIN    CLEAR     59  59 100 CALM      30.33R
MADISON        FAIR      57  57 100 N7        30.30R
MITCHELL       FAIR      60  57  89 N6        30.30R
YANKTON        CLEAR     60  59  96 NW8       30.29R
$$

ABBREVIATIONS USED IN REMARKS
   TC - TEMPERATURE IN CELSIUS
  WCI - WIND CHILL INDEX
   HX - HEAT INDEX
  VSB - VISIBILITY




USA.gov is the U.S. government's official web portal to all federal, state and local government web resources and services.